Voltar ao catálogo

STARLINK-37071

AtivoComunicaçõesVLEO
NORAD 68190·PAYLOAD·🇺🇸 United States

Lançado Mar 14, 2026 de Vandenberg Space Force Base

Loading…

Próximas Passagens (próximas 24 horas)

TLE

AtualizadoSource: CelesTrak SupGP

Época: Sep 15, 2026, 03:51 UTC

1 68190C 26050Z   26258.16090278 -.00014047  00000+0 -41494-3 0  2583
2 68190  53.1577 102.9972 0001291  81.1696 284.8157 15.34403321    10

Acompanhe STARLINK-37071 em tempo real com AllMySat

Download on the App Store